Weather in Bistriţa

Romania     47°07′52″N   24°29′15″E
temp.,
°C
wind,
m/s
gust,
m/s
humid.,
%
clouds,
%
prec.,
mm/h
press.,
hPa
HPBL,
m
10 may, mon
mon1000:00+6ene22815 0.0 102518
03:00+5ene22825 0.0 102519
06:00+4ene22775 0.0 102418
09:00+11ene11605 0.0 1023223
12:00+16sw22515 0.0 1022655
15:00+19sw22525 0.0 1020776
18:00+19sw11575 0.0 1019619
21:00+13ne22785 0.0 101911
11 may, tue
tue1100:00+10ene22864 0.0 102018
03:00+9ene22871 0.0 101917
06:00+9ene22875 0.0 101913
09:00+15e11713 0.0 1018249
12:00+18sw22650 0.0 1016675
15:00+21sw22610 0.0 1014846
18:00+21ssw11634 0.0 1013805
21:00+15ene11802 0.6 101211
12 may, wed
wed1200:00+11ene33861 0.0 101337
03:00+9ene33882 0.0 101232
06:00+8ene33890 0.0 101133
09:00+14e22720 0.0 1009318
12:00+19s23522 0.0 10071179
15:00+20sw3450100 0.0 10051313
18:00+19sse2565100 0.2 1004449
21:00+13e3381100 0.8 100552
13 may, thu
thu1300:00+11ene2287100 0.2 100750
03:00+10ene1193100 1.6 100640
06:00+10sse1398100 5.6 1006181
09:00+10sse1295100 8.6 1006196
12:00+11ssw1289100 0.2 1006409
15:00+14sw4479100 0.6 1005881
18:00+13nw117987 0.4 1005533
21:00+10nnw119088 0.6 100610
14 may, fri
fri1400:00+9e1191100 0.1 100710
03:00+9sse119286 0.2 100810
06:00+9ene119590 0.3 100913
09:00+11wsw1288100 0.8 1009231
12:00+14wsw237463 1.5 10101069
15:00+15w236990 3.3 10101046
18:00+15wnw447899 1.6 1010820
21:00+10wsw118821 2.8 101210